Location: Caltech
(34.1382°N, 118.1253°W)
Time: 00:06:19
(UTC-07:00)

Gurwin Techsat 1B - Visible Passes

Search period start: 06 July 2015 00:00
Search period end: 16 July 2015 00:00
Orbit: 813 x 813 km, 98.5° (Epoch: 05 July)

Date Brightness Start Highest point End Pass type
(mag) Time Alt. Az. Time Alt. Az. Time Alt. Az.
06 Jul 10.8 02:04:54 10° ENE 02:07:27 14° E 02:08:27 14° ESE visible
06 Jul 8.8 03:42:40 10° N 03:47:54 58° WNW 03:49:39 39° SW visible
07 Jul 8.5 03:19:52 10° NNE 03:25:12 84° E 03:26:36 51° S visible
07 Jul 10.7 05:03:29 10° NW 05:04:34 10° WNW 05:05:17 10° WNW visible
08 Jul 9.2 02:57:17 10° NNE 03:02:26 50° E 03:03:33 43° SE visible
08 Jul 10.3 04:38:31 10° NNW 04:42:04 18° WNW 04:44:45 12° W visible
09 Jul 9.9 02:35:01 10° NE 02:39:35 30° E 02:40:29 28° ESE visible
09 Jul 9.7 04:14:57 10° N 04:19:30 29° WNW 04:21:42 21° WSW visible
10 Jul 10.6 02:13:14 10° NE 02:16:37 18° E 02:17:26 17° ESE visible
10 Jul 9.0 03:51:47 10° N 03:56:53 47° WNW 03:58:38 34° WSW visible
11 Jul 8.5 03:28:53 10° N 03:34:13 79° WNW 03:35:34 51° SSW visible
12 Jul 8.9 03:06:13 10° NNE 03:11:29 62° E 03:12:31 52° SSE visible
12 Jul 10.5 04:48:06 10° NNW 04:51:00 14° WNW 04:53:37 10° W visible
13 Jul 9.6 02:43:48 10° NNE 02:48:40 36° E 02:49:27 35° ESE visible
13 Jul 10.0 04:24:15 10° NNW 04:28:27 24° WNW 04:30:39 18° WSW visible
14 Jul 10.4 02:21:46 10° NE 02:25:44 22° E 02:26:22 22° ESE visible
14 Jul 9.3 04:00:57 10° N 04:05:51 38° WNW 04:07:35 30° WSW visible
15 Jul 11.0 02:00:39 10° ENE 02:02:43 13° E 02:03:19 12° E visible
15 Jul 8.6 03:37:56 10° N 03:43:13 64° WNW 03:44:31 48° SW visible
